EN

Hourly Weather Barrancas

Today, 28 January, Thursday

Time Temperature Precipitation Wind Pressure Humidity
00:00 +23°C° 0 mm 2 mps 720 mmHg 78%
01:00 +23°C° 0 mm 2 mps 720 mmHg 79%
02:00 +21°C° 0 mm 2 mps 720 mmHg 80%
03:00 +21°C° 0 mm 2 mps 720 mmHg 81%
04:00 +21°C° 0 mm 2 mps 720 mmHg 82%
05:00 +21°C° 0 mm 2 mps 721 mmHg 80%
06:00 +23°C° 0 mm 2 mps 721 mmHg 78%
07:00 +23°C° 0 mm 2 mps 722 mmHg 76%
08:00 +26°C° 0 mm 2 mps 722 mmHg 67%
09:00 +28°C° 0 mm 3 mps 723 mmHg 58%
10:00 +30°C° 0 mm 3 mps 723 mmHg 50%
11:00 +31°C° 0 mm 3 mps 722 mmHg 45%
12:00 +33°C° 0 mm 3 mps 722 mmHg 41%
13:00 +35°C° 0 mm 3 mps 721 mmHg 37%
14:00 +34°C° 0 mm 3 mps 721 mmHg 38%
15:00 +34°C° 0 mm 3 mps 720 mmHg 39%
16:00 +33°C° 0 mm 4 mps 720 mmHg 40%
17:00 +30°C° 0 mm 3 mps 720 mmHg 48%
18:00 +28°C° 0 mm 3 mps 720 mmHg 56%
19:00 +26°C° 0 mm 3 mps 720 mmHg 64%
20:00 +25°C° 0 mm 3 mps 720 mmHg 68%
21:00 +24°C° 0 mm 2 mps 721 mmHg 71%
22:00 +24°C° 0 mm 2 mps 721 mmHg 75%
23:00 +23°C° 0 mm 2 mps 721 mmHg 77%

Tomorrow, 29 January, Friday

Time Temperature Precipitation Wind Pressure Humidity
00:00 +23°C° 0 mm 1 mps 720 mmHg 79%
01:00 +22°C° 0 mm 1 mps 720 mmHg 80%
02:00 +22°C° 0 mm 1 mps 720 mmHg 81%
03:00 +22°C° 0 mm 1 mps 720 mmHg 81%
04:00 +21°C° 0 mm 1 mps 720 mmHg 82%
05:00 +22°C° 0 mm 1 mps 720 mmHg 80%
06:00 +21°C° 0 mm 2 mps 721 mmHg 78%
07:00 +21°C° 0 mm 2 mps 721 mmHg 77%
08:00 +25°C° 0 mm 2 mps 722 mmHg 65%
09:00 +27°C° 0 mm 2 mps 722 mmHg 54%
10:00 +30°C° 0 mm 2 mps 723 mmHg 43%
11:00 +31°C° 0 mm 3 mps 722 mmHg 38%
12:00 +34°C° 0 mm 3 mps 721 mmHg 33%
13:00 +35°C° 0 mm 3 mps 721 mmHg 28%
14:00 +35°C° 0 mm 3 mps 720 mmHg 30%
15:00 +34°C° 0 mm 4 mps 720 mmHg 31%
16:00 +34°C° 0 mm 4 mps 719 mmHg 33%
17:00 +30°C° 0 mm 4 mps 719 mmHg 41%
18:00 +28°C° 0 mm 3 mps 719 mmHg 50%
19:00 +25°C° 0 mm 3 mps 719 mmHg 59%
20:00 +25°C° 0 mm 3 mps 720 mmHg 64%
21:00 +24°C° 0 mm 3 mps 720 mmHg 70%
22:00 +22°C° 0 mm 3 mps 721 mmHg 75%
23:00 +22°C° 0 mm 3 mps 720 mmHg 78%

Day after tomorrow, 30 January, Saturday

Time Temperature Precipitation Wind Pressure Humidity
00:00 +21°C° 0 mm 2 mps 720 mmHg 81%
01:00 +20°C° 0 mm 2 mps 720 mmHg 84%
02:00 +20°C° 0 mm 2 mps 720 mmHg 84%
03:00 +19°C° 0 mm 2 mps 720 mmHg 84%
04:00 +19°C° 0 mm 2 mps 719 mmHg 84%
05:00 +19°C° 0 mm 2 mps 720 mmHg 82%
06:00 +20°C° 0 mm 2 mps 720 mmHg 80%
07:00 +20°C° 0 mm 2 mps 721 mmHg 77%
08:00 +24°C° 0 mm 2 mps 722 mmHg 66%
09:00 +27°C° 0 mm 2 mps 722 mmHg 55%
10:00 +30°C° 0 mm 2 mps 723 mmHg 44%
11:00 +31°C° 0 mm 2 mps 722 mmHg 40%
12:00 +34°C° 0 mm 2 mps 721 mmHg 35%
13:00 +35°C° 0 mm 2 mps 721 mmHg 31%
14:00 +35°C° 0 mm 3 mps 720 mmHg 31%
15:00 +34°C° 0 mm 3 mps 720 mmHg 32%
16:00 +34°C° 0 mm 3 mps 719 mmHg 32%
17:00 +31°C° 0 mm 3 mps 719 mmHg 41%
18:00 +28°C° 0 mm 3 mps 719 mmHg 50%
19:00 +26°C° 0 mm 3 mps 719 mmHg 59%
20:00 +25°C° 0 mm 3 mps 720 mmHg 65%
21:00 +24°C° 0 mm 3 mps 720 mmHg 71%
22:00 +23°C° 0 mm 2 mps 720 mmHg 76%
23:00 +23°C° 0 mm 2 mps 720 mmHg 78%

31 January, Sunday

Time Temperature Precipitation Wind Pressure Humidity
00:00 +23°C° 0 mm 2 mps 720 mmHg 80%
01:00 +21°C° 0 mm 2 mps 720 mmHg 81%
02:00 +21°C° 0 mm 2 mps 720 mmHg 82%
03:00 +21°C° 0 mm 2 mps 720 mmHg 82%
04:00 +20°C° 0 mm 2 mps 720 mmHg 82%
05:00 +21°C° 0 mm 2 mps 720 mmHg 80%
06:00 +21°C° 0 mm 2 mps 721 mmHg 78%
07:00 +23°C° 0 mm 2 mps 721 mmHg 76%
08:00 +25°C° 0 mm 2 mps 721 mmHg 66%
09:00 +28°C° 0 mm 3 mps 722 mmHg 56%
10:00 +31°C° 0 mm 3 mps 722 mmHg 47%
11:00 +33°C° 0 mm 3 mps 722 mmHg 43%
12:00 +34°C° 0 mm 2 mps 721 mmHg 40%
13:00 +35°C° 0 mm 2 mps 720 mmHg 37%
14:00 +34°C° 0 mm 2 mps 720 mmHg 39%
15:00 +34°C° 0 mm 3 mps 719 mmHg 40%
16:00 +34°C° 0 mm 3 mps 718 mmHg 42%
17:00 +31°C° 0 mm 3 mps 719 mmHg 49%
18:00 +29°C° 0 mm 3 mps 719 mmHg 56%
19:00 +27°C° 0 mm 3 mps 719 mmHg 64%
20:00 +26°C° 0 mm 3 mps 719 mmHg 67%
21:00 +25°C° 0 mm 3 mps 720 mmHg 71%
22:00 +24°C° 0 mm 2 mps 720 mmHg 75%
23:00 +24°C° 0 mm 2 mps 720 mmHg 76%

1 February, Monday

Time Temperature Precipitation Wind Pressure Humidity
00:00 +23°C° 0 mm 2 mps 719 mmHg 78%
01:00 +23°C° 0 mm 2 mps 719 mmHg 79%
02:00 +23°C° 0 mm 2 mps 719 mmHg 80%
03:00 +23°C° 0 mm 2 mps 719 mmHg 80%
04:00 +21°C° 0 mm 2 mps 719 mmHg 81%
05:00 +23°C° 0 mm 2 mps 719 mmHg 79%
06:00 +23°C° 0 mm 2 mps 719 mmHg 77%
07:00 +24°C° 0 mm 2 mps 720 mmHg 76%
08:00 +26°C° 0 mm 2 mps 720 mmHg 66%
09:00 +29°C° 0 mm 2 mps 721 mmHg 57%
10:00 +32°C° 0 mm 2 mps 721 mmHg 47%
11:00 +34°C° 0 mm 2 mps 721 mmHg 44%
12:00 +34°C° 0 mm 1 mps 720 mmHg 40%
13:00 +35°C° 0 mm 1 mps 719 mmHg 37%
14:00 +36°C° 0 mm 2 mps 719 mmHg 39%
15:00 +35°C° 0 mm 2 mps 718 mmHg 42%
16:00 +34°C° 0 mm 3 mps 718 mmHg 45%
17:00 +31°C° 0 mm 3 mps 718 mmHg 51%
18:00 +29°C° 0 mm 3 mps 718 mmHg 58%
19:00 +27°C° 0 mm 3 mps 718 mmHg 65%
20:00 +27°C° 0 mm 3 mps 719 mmHg 68%
21:00 +26°C° 0 mm 2 mps 719 mmHg 72%
22:00 +25°C° 0 mm 2 mps 720 mmHg 75%
23:00 +25°C° 0.1 mm 2 mps 719 mmHg 77%

2 February, Tuesday

Time Temperature Precipitation Wind Pressure Humidity
00:00 +24°C° 0.1 mm 2 mps 719 mmHg 80%
01:00 +24°C° 0.1 mm 2 mps 718 mmHg 82%
02:00 +23°C° 0 mm 2 mps 718 mmHg 83%
03:00 +23°C° 0 mm 1 mps 718 mmHg 84%
04:00 +23°C° 0 mm 1 mps 718 mmHg 85%
05:00 +23°C° 0 mm 1 mps 719 mmHg 83%
06:00 +23°C° 0 mm 1 mps 719 mmHg 81%
07:00 +24°C° 0 mm 1 mps 720 mmHg 80%
08:00 +27°C° 0 mm 1 mps 720 mmHg 69%
09:00 +29°C° 0 mm 1 mps 721 mmHg 59%
10:00 +32°C° 0 mm 1 mps 721 mmHg 48%
11:00 +33°C° 0 mm 1 mps 720 mmHg 46%
12:00 +33°C° 0 mm 1 mps 720 mmHg 44%
13:00 +32°C° 0 mm 0 mps 719 mmHg 42%
14:00 +34°C° 0 mm 2 mps 718 mmHg 45%
15:00 +33°C° 0 mm 3 mps 718 mmHg 48%
16:00 +32°C° 0 mm 5 mps 717 mmHg 51%
17:00 +29°C° 0 mm 4 mps 717 mmHg 58%
18:00 +27°C° 0 mm 3 mps 717 mmHg 66%
19:00 +25°C° 0 mm 2 mps 718 mmHg 74%
20:00 +25°C° 0 mm 2 mps 718 mmHg 75%
21:00 +25°C° 0 mm 2 mps 718 mmHg 76%
22:00 +24°C° 0 mm 2 mps 719 mmHg 77%
23:00 +24°C° 0 mm 2 mps 719 mmHg 78%
Show more

We Need Your Consent

Meteoprog and our Service Providers may store and access personal data such as cookies, device identifiers or other similar technologies on your device and process such data to personalise content and ads, as well as provide social media features and to analyse the traffic.

  • Store and/or access information on your device

    Cookies, device identifiers or other information can be stored or accessed on your device for the purposes indicated above.

  • Personalised ads and content, ad and content measurement, audience insights, and products development

    Ads and content can be personalised based on a profile. More data can be added to better personalise ads and content. Ad and content performance can be measured. Insights about the audience who saw the ads and content can be derived. Such data can be used to develop or improve user’s experience, systems and software.

By clicking ‘I Agree’ you will allow the use of indicated cookies, device identifiers, web beacons or other similar technologies. Your settings can be changed in the browser on your device.

For certain purposes, legitimate interests may be relied on, rather than consent. You can read more about this in our Privacy and Cookie Policy.